Time,TemperatureF,DewpointF,PressureIn,WindDirection,WindDirectionDegrees,WindSpeedMPH,WindSpeedGustMPH,Humidity,HourlyPrecipIn,Conditions,Clouds,dailyrainin,SoftwareType,DateUTC
2013-08-02 03:12:00,50.4,44.1,29.94,WSW,252,0.0,0.0,79,0.00,CLR,,0.00,WeatherDisplay:10.37,2013-08-01 17:12:00,
2013-08-02 03:22:00,50.5,44.6,29.94,SW,229,0.0,0.0,80,0.00,CLR,,0.00,WeatherDisplay:10.37,2013-08-01 17:22:00,
2013-08-02 03:27:00,50.4,44.1,29.94,SW,214,0.0,0.0,79,0.00,CLR,,0.00,WeatherDisplay:10.37,2013-08-01 17:27:00,
2013-08-02 03:32:00,50.2,43.9,29.93,SW,216,0.0,0.0,79,0.00,CLR,,0.00,WeatherDisplay:10.37,2013-08-01 17:32:00,
2013-08-02 03:37:00,50.2,43.9,29.93,SW,224,0.0,0.0,79,0.00,CLR,,0.00,WeatherDisplay:10.37,2013-08-01 17:37:00,
2013-08-02 03:42:00,49.8,43.6,29.93,WSW,240,0.0,0.0,79,0.00,CLR,,0.00,WeatherDisplay:10.37,2013-08-01 17:42:00,
2013-08-02 03:47:00,49.8,43.6,29.93,SW,222,0.0,0.0,79,0.00,CLR,,0.00,WeatherDisplay:10.37,2013-08-01 17:47:00,
2013-08-02 03:52:00,49.8,43.6,29.93,SW,218,0.0,0.0,79,0.00,CLR,,0.00,WeatherDisplay:10.37,2013-08-01 17:52:00,
2013-08-02 04:02:00,49.8,43.6,29.93,SW,220,0.0,0.0,79,0.00,CLR,,0.00,WeatherDisplay:10.37,2013-08-01 18:02:00,
2013-08-02 04:07:00,49.8,43.9,29.93,SW,220,0.0,0.0,80,0.00,CLR,,0.00,WeatherDisplay:10.37,2013-08-01 18:07:00,
2013-08-02 04:17:00,50.2,44.2,29.93,NNW,331,0.0,0.0,80,0.00,CLR,,0.00,WeatherDisplay:10.37,2013-08-01 18:17:00,
2013-08-02 04:27:00,49.8,43.9,29.93,North,9,0.0,0.0,80,0.00,CLR,,0.00,WeatherDisplay:10.37,2013-08-01 18:27:00,
2013-08-02 04:42:00,49.3,43.0,29.93,NNE,16,0.0,0.0,79,0.00,CLR,,0.00,WeatherDisplay:10.37,2013-08-01 18:42:00,
2013-08-02 04:47:00,49.2,43.0,29.93,NNE,18,0.0,0.0,79,0.00,CLR,,0.00,WeatherDisplay:10.37,2013-08-01 18:47:00,
2013-08-02 04:52:00,49.1,42.8,29.93,NNE,16,0.0,0.0,79,0.00,CLR,,0.00,WeatherDisplay:10.37,2013-08-01 18:52:00,
2013-08-02 05:07:00,48.7,42.5,29.94,NNE,13,0.0,0.0,79,0.00,CLR,,0.00,WeatherDisplay:10.37,2013-08-01 19:07:00,
2013-08-02 05:12:00,48.6,42.3,29.93,NNE,17,0.0,0.0,79,0.00,CLR,,0.00,WeatherDisplay:10.37,2013-08-01 19:12:00,
2013-08-02 05:22:00,48.3,41.8,29.94,NNE,13,0.0,0.0,78,0.00,CLR,,0.00,WeatherDisplay:10.37,2013-08-01 19:22:00,
2013-08-02 05:27:00,48.0,41.5,29.94,NNE,17,0.0,0.0,78,0.00,CLR,,0.00,WeatherDisplay:10.37,2013-08-01 19:27:00,
2013-08-02 05:32:00,48.0,41.8,29.94,NNE,15,0.0,0.0,79,0.00,CLR,,0.00,WeatherDisplay:10.37,2013-08-01 19:32:00,
2013-08-02 05:37:00,48.0,41.8,29.94,North,10,0.0,0.0,79,0.00,CLR,,0.00,WeatherDisplay:10.37,2013-08-01 19:37:00,
2013-08-02 05:47:00,47.8,41.6,29.94,NNE,15,0.0,0.0,79,0.00,CLR,,0.00,WeatherDisplay:10.37,2013-08-01 19:47:00,
2013-08-02 05:52:00,47.7,41.5,29.95,NNE,16,0.0,0.0,79,0.00,CLR,,0.00,WeatherDisplay:10.37,2013-08-01 19:52:00,
2013-08-02 06:07:00,47.5,41.3,29.95,NNW,342,0.0,0.0,79,0.00,CLR,,0.00,WeatherDisplay:10.37,2013-08-01 20:07:00,
2013-08-02 06:12:00,47.5,41.3,29.95,WNW,285,0.0,0.0,79,0.00,CLR,,0.00,WeatherDisplay:10.37,2013-08-01 20:12:00,
2013-08-02 06:17:00,47.5,41.3,29.95,WSW,245,0.0,0.0,79,0.00,CLR,,0.00,WeatherDisplay:10.37,2013-08-01 20:17:00,
2013-08-02 06:22:00,47.5,41.3,29.95,South,181,0.0,0.0,79,0.00,CLR,,0.00,WeatherDisplay:10.37,2013-08-01 20:22:00,
2013-08-02 06:27:00,47.5,41.3,29.95,SSE,158,0.0,0.0,79,0.00,CLR,,0.00,WeatherDisplay:10.37,2013-08-01 20:27:00,
2013-08-02 06:32:00,47.5,41.3,29.95,SSE,158,0.0,0.0,79,0.00,CLR,,0.00,WeatherDisplay:10.37,2013-08-01 20:32:00,
2013-08-02 06:37:00,47.5,41.3,29.95,SSE,159,0.0,0.0,79,0.00,CLR,,0.00,WeatherDisplay:10.37,2013-08-01 20:37:00,
2013-08-02 06:42:00,47.5,41.6,29.95,SSE,159,0.0,0.0,80,0.00,CLR,,0.00,WeatherDisplay:10.37,2013-08-01 20:42:00,
2013-08-02 06:52:00,47.6,41.7,29.95,SSE,158,0.0,0.0,80,0.00,CLR,,0.00,WeatherDisplay:10.37,2013-08-01 20:52:00,
2013-08-02 06:57:00,47.6,41.8,29.95,SSE,158,0.0,0.0,80,0.00,CLR,,0.00,WeatherDisplay:10.37,2013-08-01 20:57:00,
2013-08-02 07:02:00,47.8,41.9,29.95,SSE,158,0.0,0.0,80,0.00,CLR,,0.00,WeatherDisplay:10.37,2013-08-01 21:02:00,
2013-08-02 07:07:00,47.8,42.0,29.95,SSE,158,0.0,0.0,80,0.00,CLR,,0.00,WeatherDisplay:10.37,2013-08-01 21:07:00,
2013-08-02 07:12:00,47.8,41.9,29.95,SSE,161,0.0,0.0,80,0.00,CLR,,0.00,WeatherDisplay:10.37,2013-08-01 21:12:00,
2013-08-02 07:17:00,47.8,42.0,29.95,SSE,162,0.0,0.0,80,0.00,CLR,,0.00,WeatherDisplay:10.37,2013-08-01 21:17:00,
2013-08-02 07:22:00,47.8,42.0,29.95,SSE,160,0.0,0.0,80,0.00,CLR,,0.00,WeatherDisplay:10.37,2013-08-01 21:22:00,
2013-08-02 07:27:00,48.0,42.5,29.96,East,84,0.0,0.0,81,0.00,CLR,,0.00,WeatherDisplay:10.37,2013-08-01 21:27:00,
2013-08-02 07:32:00,48.0,42.5,29.96,NNE,25,0.0,0.0,81,0.00,CLR,,0.00,WeatherDisplay:10.37,2013-08-01 21:32:00,
2013-08-02 07:37:00,48.1,42.5,29.96,North,357,0.0,0.0,81,0.00,CLR,,0.00,WeatherDisplay:10.37,2013-08-01 21:37:00,
2013-08-02 07:42:00,48.4,42.8,29.96,NNW,337,0.0,0.0,81,0.00,CLR,,0.00,WeatherDisplay:10.37,2013-08-01 21:42:00,
2013-08-02 07:47:00,48.6,43.0,29.96,North,358,0.0,0.0,81,0.00,CLR,,0.00,WeatherDisplay:10.37,2013-08-01 21:47:00,
2013-08-02 07:52:00,48.7,43.2,29.96,NE,34,0.0,0.0,81,0.00,CLR,,0.00,WeatherDisplay:10.37,2013-08-01 21:52:00,
2013-08-02 07:57:00,48.9,43.3,29.96,NE,42,0.0,0.0,81,0.00,CLR,,0.00,WeatherDisplay:10.37,2013-08-01 21:57:00,
2013-08-02 08:02:00,49.1,43.6,29.96,NNE,32,0.0,0.0,81,0.00,CLR,,0.00,WeatherDisplay:10.37,2013-08-01 22:02:00,
2013-08-02 08:12:00,49.8,44.5,29.96,North,5,0.0,0.0,82,0.00,CLR,,0.00,WeatherDisplay:10.37,2013-08-01 22:12:00,
2013-08-02 08:17:00,50.2,45.0,29.96,North,358,0.0,0.0,82,0.00,CLR,,0.00,WeatherDisplay:10.37,2013-08-01 22:17:00,
2013-08-02 08:22:00,50.7,45.7,29.96,NNW,341,0.0,0.0,83,0.00,CLR,,0.00,WeatherDisplay:10.37,2013-08-01 22:22:00,
2013-08-02 08:27:00,51.2,46.2,29.96,North,351,0.0,2.0,83,0.00,CLR,,0.00,WeatherDisplay:10.37,2013-08-01 22:27:00,
2013-08-02 08:32:00,51.6,46.6,29.96,NNE,14,0.0,2.0,83,0.00,CLR,,0.00,WeatherDisplay:10.37,2013-08-01 22:32:00,
2013-08-02 08:37:00,52.2,47.2,29.96,NNE,25,0.0,1.0,83,0.00,CLR,,0.00,WeatherDisplay:10.37,2013-08-01 22:37:00,
2013-08-02 08:42:00,52.6,47.6,29.96,NNE,13,0.0,0.0,83,0.00,CLR,,0.00,WeatherDisplay:10.37,2013-08-01 22:42:00,
2013-08-02 08:47:00,52.9,47.9,29.95,North,1,0.0,0.0,83,0.00,CLR,,0.00,WeatherDisplay:10.37,2013-08-01 22:47:00,
2013-08-02 08:52:00,53.4,48.1,29.95,NNE,12,0.0,0.0,82,0.00,CLR,,0.00,WeatherDisplay:10.37,2013-08-01 22:52:00,
2013-08-02 08:57:00,53.7,48.3,29.95,NNE,12,0.0,0.0,82,0.00,CLR,,0.00,WeatherDisplay:10.37,2013-08-01 22:57:00,
2013-08-02 09:02:00,54.3,48.9,29.95,NNE,29,0.0,2.0,82,0.00,CLR,,0.00,WeatherDisplay:10.37,2013-08-01 23:02:00,
2013-08-02 09:07:00,54.7,49.3,29.95,North,9,0.0,2.0,82,0.00,CLR,,0.00,WeatherDisplay:10.37,2013-08-01 23:07:00,
2013-08-02 09:12:00,55.1,49.7,29.95,North,357,0.0,2.0,82,0.00,CLR,,0.00,WeatherDisplay:10.37,2013-08-01 23:12:00,
2013-08-02 09:22:00,56.1,50.7,29.95,NNE,20,0.0,3.0,82,0.00,CLR,,0.00,WeatherDisplay:10.37,2013-08-01 23:22:00,
2013-08-02 09:27:00,56.8,51.1,29.94,NNE,13,0.0,0.0,81,0.00,CLR,,0.00,WeatherDisplay:10.37,2013-08-01 23:27:00,
2013-08-02 09:32:00,57.3,51.6,29.95,NNE,19,0.0,3.0,81,0.00,CLR,,0.00,WeatherDisplay:10.37,2013-08-01 23:32:00,
2013-08-02 09:37:00,57.9,51.4,29.94,NE,36,1.0,5.0,79,0.00,CLR,,0.00,WeatherDisplay:10.37,2013-08-01 23:37:00,
2013-08-02 09:57:00,59.9,52.4,29.94,North,351,0.0,0.0,76,0.00,CLR,,0.00,WeatherDisplay:10.37,2013-08-01 23:57:00,
2013-08-02 10:02:00,60.4,52.8,29.94,NNW,343,1.0,2.0,76,0.00,CLR,,0.00,WeatherDisplay:10.37,2013-08-02 00:02:00,
2013-08-02 10:07:00,60.6,52.6,29.95,NNW,345,1.0,4.0,75,0.00,CLR,,0.00,WeatherDisplay:10.37,2013-08-02 00:07:00,
2013-08-02 10:12:00,60.4,52.1,29.94,North,1,1.0,5.0,74,0.00,CLR,,0.00,WeatherDisplay:10.37,2013-08-02 00:12:00,
2013-08-02 10:17:00,60.4,52.0,29.94,North,2,0.0,5.0,74,0.00,CLR,,0.00,WeatherDisplay:10.37,2013-08-02 00:17:00,
2013-08-02 10:22:00,60.4,52.1,29.94,North,356,1.0,4.0,74,0.00,CLR,,0.00,WeatherDisplay:10.37,2013-08-02 00:22:00,
2013-08-02 10:27:00,60.3,51.6,29.93,North,5,2.0,5.0,73,0.00,CLR,,0.00,WeatherDisplay:10.37,2013-08-02 00:27:00,
2013-08-02 10:32:00,60.4,51.7,29.93,North,360,2.0,6.0,73,0.00,CLR,,0.00,WeatherDisplay:10.37,2013-08-02 00:32:00,
2013-08-02 10:37:00,60.6,51.5,29.93,NNW,341,0.0,4.0,72,0.00,CLR,,0.00,WeatherDisplay:10.37,2013-08-02 00:37:00,
2013-08-02 10:42:00,61.0,51.9,29.93,NNW,342,0.0,2.0,72,0.00,CLR,,0.00,WeatherDisplay:10.37,2013-08-02 00:42:00,
2013-08-02 10:47:00,61.2,51.7,29.93,North,0,1.0,3.0,71,0.00,CLR,,0.00,WeatherDisplay:10.37,2013-08-02 00:47:00,
2013-08-02 10:52:00,61.5,52.0,29.92,North,352,1.0,3.0,71,0.00,CLR,,0.00,WeatherDisplay:10.37,2013-08-02 00:52:00,
2013-08-02 10:57:00,62.2,52.7,29.92,NNW,348,1.0,5.0,71,0.00,CLR,,0.00,WeatherDisplay:10.37,2013-08-02 00:57:00,
2013-08-02 11:02:00,62.8,52.9,29.92,NNW,345,0.0,2.0,70,0.00,CLR,,0.00,WeatherDisplay:10.37,2013-08-02 01:02:00,
2013-08-02 11:07:00,63.3,53.0,29.91,NNW,342,0.0,3.0,69,0.00,CLR,,0.00,WeatherDisplay:10.37,2013-08-02 01:07:00,
2013-08-02 11:12:00,63.7,52.9,29.91,NNW,341,1.0,4.0,68,0.00,CLR,,0.00,WeatherDisplay:10.37,2013-08-02 01:12:00,
2013-08-02 11:17:00,63.7,52.5,29.91,NNW,340,2.0,3.0,67,0.00,CLR,,0.00,WeatherDisplay:10.37,2013-08-02 01:17:00,
2013-08-02 11:22:00,64.0,52.4,29.90,NNW,346,1.0,4.0,66,0.00,CLR,,0.00,WeatherDisplay:10.37,2013-08-02 01:22:00,
2013-08-02 11:32:00,64.6,53.0,29.89,North,349,0.0,4.0,66,0.00,CLR,,0.00,WeatherDisplay:10.37,2013-08-02 01:32:00,
2013-08-02 11:37:00,65.1,53.1,29.89,NNW,337,3.0,7.0,65,0.00,CLR,,0.00,WeatherDisplay:10.37,2013-08-02 01:37:00,
2013-08-02 11:42:00,65.5,53.0,29.88,NNW,333,0.0,2.0,64,0.00,CLR,,0.00,WeatherDisplay:10.37,2013-08-02 01:42:00,
2013-08-02 11:47:00,65.9,53.4,29.88,NW,317,0.0,3.0,64,0.00,CLR,,0.00,WeatherDisplay:10.37,2013-08-02 01:47:00,
2013-08-02 11:57:00,67.1,53.7,29.87,WNW,302,0.0,3.0,62,0.00,CLR,,0.00,WeatherDisplay:10.37,2013-08-02 01:57:00,
2013-08-02 12:02:00,67.6,54.2,29.87,NW,323,1.0,4.0,62,0.00,CLR,,0.00,WeatherDisplay:10.37,2013-08-02 02:02:00,
2013-08-02 12:12:00,68.2,53.8,29.86,NNW,327,1.0,4.0,60,0.00,CLR,,0.00,WeatherDisplay:10.37,2013-08-02 02:12:00,
2013-08-02 12:17:00,68.5,54.0,29.85,NNW,341,1.0,5.0,60,0.00,CLR,,0.00,WeatherDisplay:10.37,2013-08-02 02:17:00,
2013-08-02 12:32:00,68.7,53.4,29.85,North,353,0.0,4.0,58,0.00,CLR,,0.00,WeatherDisplay:10.37,2013-08-02 02:32:00,
2013-08-02 12:37:00,69.1,53.7,29.84,North,349,0.0,2.0,58,0.00,CLR,,0.00,WeatherDisplay:10.37,2013-08-02 02:37:00,
2013-08-02 12:47:00,69.4,53.5,29.83,North,355,0.0,5.0,57,0.00,CLR,,0.00,WeatherDisplay:10.37,2013-08-02 02:47:00,
2013-08-02 12:52:00,69.6,53.2,29.83,North,355,2.0,5.0,56,0.00,CLR,,0.00,WeatherDisplay:10.37,2013-08-02 02:52:00,
2013-08-02 12:57:00,69.6,53.2,29.82,NNW,347,0.0,3.0,56,0.00,CLR,,0.00,WeatherDisplay:10.37,2013-08-02 02:57:00,
2013-08-02 13:07:00,70.1,53.2,29.82,North,353,1.0,5.0,55,0.00,CLR,,0.00,WeatherDisplay:10.37,2013-08-02 03:07:00,
2013-08-02 13:12:00,70.3,53.4,29.82,NNW,347,1.0,4.0,55,0.00,CLR,,0.00,WeatherDisplay:10.37,2013-08-02 03:12:00,
2013-08-02 13:17:00,70.5,53.1,29.81,North,358,1.0,5.0,54,0.00,CLR,,0.00,WeatherDisplay:10.37,2013-08-02 03:17:00,
2013-08-02 13:27:00,70.5,52.6,29.80,NNW,346,2.0,9.0,53,0.00,CLR,,0.00,WeatherDisplay:10.37,2013-08-02 03:27:00,
2013-08-02 13:32:00,70.6,52.2,29.81,NNW,333,3.0,6.0,52,0.00,CLR,,0.00,WeatherDisplay:10.37,2013-08-02 03:32:00,
2013-08-02 13:37:00,70.7,51.7,29.80,NW,324,1.0,5.0,51,0.00,CLR,,0.00,WeatherDisplay:10.37,2013-08-02 03:37:00,
2013-08-02 13:42:00,70.7,51.7,29.80,North,356,5.0,10.0,51,0.00,CLR,,0.00,WeatherDisplay:10.37,2013-08-02 03:42:00,
2013-08-02 13:52:00,70.9,51.8,29.80,NW,311,1.0,5.0,51,0.00,CLR,,0.00,WeatherDisplay:10.37,2013-08-02 03:52:00,
2013-08-02 13:57:00,70.9,51.9,29.80,NW,322,2.0,5.0,51,0.00,CLR,,0.00,WeatherDisplay:10.37,2013-08-02 03:57:00,
2013-08-02 14:02:00,71.2,51.6,29.80,North,352,1.0,8.0,50,0.00,CLR,,0.00,WeatherDisplay:10.37,2013-08-02 04:02:00,
2013-08-02 14:07:00,71.2,51.1,29.79,NNW,342,3.0,6.0,49,0.00,CLR,,0.00,WeatherDisplay:10.37,2013-08-02 04:07:00,
2013-08-02 14:12:00,71.2,51.1,29.80,NNW,339,1.0,9.0,49,0.00,CLR,,0.00,WeatherDisplay:10.37,2013-08-02 04:12:00,
2013-08-02 14:17:00,71.4,51.3,29.80,NNW,336,2.0,6.0,49,0.00,CLR,,0.00,WeatherDisplay:10.37,2013-08-02 04:17:00,
2013-08-02 14:22:00,71.2,51.1,29.79,NW,323,1.0,5.0,49,0.00,CLR,,0.00,WeatherDisplay:10.37,2013-08-02 04:22:00,
2013-08-02 14:32:00,71.4,50.7,29.79,NNW,339,2.0,6.0,48,0.00,CLR,,0.00,WeatherDisplay:10.37,2013-08-02 04:32:00,
2013-08-02 14:37:00,71.4,50.7,29.79,North,353,1.0,8.0,48,0.00,CLR,,0.00,WeatherDisplay:10.37,2013-08-02 04:37:00,
2013-08-02 14:42:00,71.4,50.7,29.79,NNW,344,0.0,5.0,48,0.00,CLR,,0.00,WeatherDisplay:10.37,2013-08-02 04:42:00,
2013-08-02 14:47:00,71.1,51.0,29.79,WNW,291,1.0,5.0,49,0.00,CLR,,0.00,WeatherDisplay:10.37,2013-08-02 04:47:00,
2013-08-02 14:52:00,70.7,50.6,29.79,West,267,1.0,5.0,49,0.00,CLR,,0.00,WeatherDisplay:10.37,2013-08-02 04:52:00,
2013-08-02 14:57:00,70.7,50.1,29.79,West,277,2.0,6.0,48,0.00,CLR,,0.00,WeatherDisplay:10.37,2013-08-02 04:57:00,
2013-08-02 15:02:00,70.9,49.6,29.79,WNW,283,1.0,6.0,47,0.00,CLR,,0.00,WeatherDisplay:10.37,2013-08-02 05:02:00,
2013-08-02 15:07:00,70.9,49.1,29.79,West,278,1.0,5.0,46,0.00,CLR,,0.00,WeatherDisplay:10.37,2013-08-02 05:07:00,
2013-08-02 15:12:00,70.9,48.5,29.79,WNW,286,2.0,7.0,45,0.00,CLR,,0.00,WeatherDisplay:10.37,2013-08-02 05:12:00,
2013-08-02 15:17:00,70.7,47.7,29.79,WNW,291,3.0,6.0,44,0.00,CLR,,0.00,WeatherDisplay:10.37,2013-08-02 05:17:00,
2013-08-02 15:22:00,70.7,47.7,29.79,WNW,301,1.0,6.0,44,0.00,CLR,,0.00,WeatherDisplay:10.37,2013-08-02 05:22:00,
2013-08-02 15:27:00,70.5,46.9,29.80,WNW,291,3.0,8.0,43,0.00,CLR,,0.00,WeatherDisplay:10.37,2013-08-02 05:27:00,
2013-08-02 15:32:00,70.4,46.8,29.80,WNW,298,2.0,8.0,43,0.00,CLR,,0.00,WeatherDisplay:10.37,2013-08-02 05:32:00,
2013-08-02 15:37:00,70.3,46.8,29.80,NW,305,3.0,6.0,43,0.00,CLR,,0.00,WeatherDisplay:10.37,2013-08-02 05:37:00,
2013-08-02 15:42:00,70.1,46.6,29.79,WNW,285,2.0,6.0,43,0.00,CLR,,0.00,WeatherDisplay:10.37,2013-08-02 05:42:00,
2013-08-02 15:47:00,69.7,46.2,29.79,West,261,3.0,7.0,43,0.00,CLR,,0.00,WeatherDisplay:10.37,2013-08-02 05:47:00,
2013-08-02 15:52:00,69.5,46.0,29.79,West,274,5.0,9.0,43,0.00,CLR,,0.00,WeatherDisplay:10.37,2013-08-02 05:52:00,
2013-08-02 15:57:00,69.1,45.6,29.79,West,271,3.0,11.0,43,0.00,CLR,,0.00,WeatherDisplay:10.37,2013-08-02 05:57:00,
2013-08-02 16:02:00,68.7,45.3,29.79,West,263,1.0,7.0,43,0.00,CLR,,0.00,WeatherDisplay:10.37,2013-08-02 06:02:00,
2013-08-02 16:07:00,68.5,45.1,29.79,WNW,283,2.0,6.0,43,0.00,CLR,,0.00,WeatherDisplay:10.37,2013-08-02 06:07:00,
2013-08-02 16:12:00,68.2,45.4,29.79,NW,323,2.0,5.0,44,0.00,CLR,,0.00,WeatherDisplay:10.37,2013-08-02 06:12:00,
2013-08-02 16:17:00,67.8,45.1,29.79,NW,310,1.0,6.0,44,0.00,CLR,,0.00,WeatherDisplay:10.37,2013-08-02 06:17:00,
2013-08-02 16:22:00,67.7,45.0,29.79,WSW,257,1.0,3.0,44,0.00,CLR,,0.00,WeatherDisplay:10.37,2013-08-02 06:22:00,
2013-08-02 16:27:00,67.3,45.2,29.79,West,277,0.0,3.0,45,0.00,CLR,,0.00,WeatherDisplay:10.37,2013-08-02 06:27:00,
2013-08-02 16:32:00,67.1,45.0,29.80,WNW,285,0.0,6.0,45,0.00,CLR,,0.00,WeatherDisplay:10.37,2013-08-02 06:32:00,
2013-08-02 16:37:00,66.9,45.5,29.80,West,278,0.0,4.0,46,0.00,CLR,,0.00,WeatherDisplay:10.37,2013-08-02 06:37:00,
2013-08-02 16:42:00,66.7,45.3,29.80,West,279,1.0,3.0,46,0.00,CLR,,0.00,WeatherDisplay:10.37,2013-08-02 06:42:00,
2013-08-02 16:47:00,66.6,45.1,29.80,WNW,282,0.0,3.0,46,0.00,CLR,,0.00,WeatherDisplay:10.37,2013-08-02 06:47:00,
2013-08-02 16:52:00,66.4,45.5,29.80,WNW,289,0.0,3.0,47,0.00,CLR,,0.00,WeatherDisplay:10.37,2013-08-02 06:52:00,
2013-08-02 16:57:00,66.0,45.2,29.80,WNW,296,0.0,2.0,47,0.00,CLR,,0.00,WeatherDisplay:10.37,2013-08-02 06:57:00,
2013-08-02 17:02:00,65.9,45.1,29.80,West,276,0.0,3.0,47,0.00,CLR,,0.00,WeatherDisplay:10.37,2013-08-02 07:02:00,
2013-08-02 17:07:00,65.7,44.9,29.80,WSW,253,0.0,3.0,47,0.00,CLR,,0.00,WeatherDisplay:10.37,2013-08-02 07:07:00,
2013-08-02 17:12:00,65.5,44.7,29.80,West,267,0.0,1.0,47,0.00,CLR,,0.00,WeatherDisplay:10.37,2013-08-02 07:12:00,
2013-08-02 17:17:00,65.3,45.1,29.80,West,266,0.0,1.0,48,0.00,CLR,,0.00,WeatherDisplay:10.37,2013-08-02 07:17:00,
2013-08-02 17:22:00,65.1,44.9,29.80,WSW,258,0.0,0.0,48,0.00,CLR,,0.00,WeatherDisplay:10.37,2013-08-02 07:22:00,
2013-08-02 17:27:00,64.9,44.8,29.80,West,264,0.0,0.0,48,0.00,CLR,,0.00,WeatherDisplay:10.37,2013-08-02 07:27:00,
2013-08-02 17:32:00,64.8,44.6,29.80,West,267,0.0,0.0,48,0.00,CLR,,0.00,WeatherDisplay:10.37,2013-08-02 07:32:00,
2013-08-02 17:37:00,64.6,45.0,29.80,West,266,0.0,0.0,49,0.00,CLR,,0.00,WeatherDisplay:10.37,2013-08-02 07:37:00,
2013-08-02 17:42:00,64.2,44.6,29.80,West,276,0.0,2.0,49,0.00,CLR,,0.00,WeatherDisplay:10.37,2013-08-02 07:42:00,
2013-08-02 17:47:00,64.0,44.5,29.80,West,272,0.0,0.0,49,0.00,CLR,,0.00,WeatherDisplay:10.37,2013-08-02 07:47:00,
2013-08-02 17:52:00,64.0,44.5,29.80,WNW,287,0.0,0.0,49,0.00,CLR,,0.00,WeatherDisplay:10.37,2013-08-02 07:52:00,
2013-08-02 17:57:00,63.7,44.7,29.80,WSW,255,0.0,0.0,50,0.00,CLR,,0.00,WeatherDisplay:10.37,2013-08-02 07:57:00,
2013-08-02 18:02:00,63.3,44.4,29.80,West,268,0.0,0.0,50,0.00,CLR,,0.00,WeatherDisplay:10.37,2013-08-02 08:02:00,
2013-08-02 18:07:00,63.1,44.2,29.80,WNW,291,0.0,0.0,50,0.00,CLR,,0.00,WeatherDisplay:10.37,2013-08-02 08:07:00,
2013-08-02 18:12:00,62.9,44.5,29.80,West,260,0.0,0.0,51,0.00,CLR,,0.00,WeatherDisplay:10.37,2013-08-02 08:12:00,
2013-08-02 18:17:00,62.4,44.0,29.80,SSW,211,0.0,0.0,51,0.00,CLR,,0.00,WeatherDisplay:10.37,2013-08-02 08:17:00,
2013-08-02 18:22:00,62.2,43.9,29.80,SSW,202,0.0,0.0,51,0.00,CLR,,0.00,WeatherDisplay:10.37,2013-08-02 08:22:00,
2013-08-02 18:27:00,61.8,44.0,29.80,SSW,202,0.0,0.0,52,0.00,CLR,,0.00,WeatherDisplay:10.37,2013-08-02 08:27:00,
2013-08-02 18:32:00,61.5,43.7,29.80,SSW,202,0.0,0.0,52,0.00,CLR,,0.00,WeatherDisplay:10.37,2013-08-02 08:32:00,
2013-08-02 18:37:00,61.0,43.7,29.80,SSW,202,0.0,0.0,53,0.00,CLR,,0.00,WeatherDisplay:10.37,2013-08-02 08:37:00,
2013-08-02 18:42:00,60.6,43.4,29.80,SSW,213,0.0,0.0,53,0.00,CLR,,0.00,WeatherDisplay:10.37,2013-08-02 08:42:00,
2013-08-02 18:47:00,60.4,43.7,29.80,SSW,212,0.0,0.0,54,0.00,CLR,,0.00,WeatherDisplay:10.37,2013-08-02 08:47:00,
2013-08-02 18:52:00,60.0,43.3,29.80,SSW,202,0.0,0.0,54,0.00,CLR,,0.00,WeatherDisplay:10.37,2013-08-02 08:52:00,
2013-08-02 18:57:00,59.7,43.5,29.80,SSW,202,0.0,0.0,55,0.00,CLR,,0.00,WeatherDisplay:10.37,2013-08-02 08:57:00,
2013-08-02 19:02:00,59.5,43.3,29.80,SSW,202,0.0,0.0,55,0.00,CLR,,0.00,WeatherDisplay:10.37,2013-08-02 09:02:00,
2013-08-02 19:07:00,59.3,43.1,29.80,SSW,202,0.0,0.0,55,0.00,CLR,,0.00,WeatherDisplay:10.37,2013-08-02 09:07:00,
2013-08-02 19:12:00,59.0,42.8,29.80,SSW,202,0.0,0.0,55,0.00,CLR,,0.00,WeatherDisplay:10.37,2013-08-02 09:12:00,
2013-08-02 19:17:00,58.8,43.1,29.80,SSW,202,0.0,0.0,56,0.00,CLR,,0.00,WeatherDisplay:10.37,2013-08-02 09:17:00,
2013-08-02 19:22:00,58.6,43.0,29.80,SSW,202,0.0,0.0,56,0.00,CLR,,0.00,WeatherDisplay:10.37,2013-08-02 09:22:00,
2013-08-02 19:27:00,58.5,42.8,29.80,SSW,202,0.0,0.0,56,0.00,CLR,,0.00,WeatherDisplay:10.37,2013-08-02 09:27:00,
2013-08-02 19:32:00,58.3,43.1,29.80,SSW,201,0.0,0.0,57,0.00,CLR,,0.00,WeatherDisplay:10.37,2013-08-02 09:32:00,
2013-08-02 19:37:00,58.3,43.1,29.80,SSW,201,0.0,0.0,57,0.00,CLR,,0.00,WeatherDisplay:10.37,2013-08-02 09:37:00,
2013-08-02 19:42:00,58.0,42.9,29.80,SSW,202,0.0,0.0,57,0.00,CLR,,0.00,WeatherDisplay:10.37,2013-08-02 09:42:00,
2013-08-02 19:47:00,57.9,42.8,29.80,SSW,202,0.0,0.0,57,0.00,CLR,,0.00,WeatherDisplay:10.37,2013-08-02 09:47:00,
2013-08-02 19:52:00,57.7,42.6,29.80,SSW,202,0.0,0.0,57,0.00,CLR,,0.00,WeatherDisplay:10.37,2013-08-02 09:52:00,
2013-08-02 19:57:00,57.6,42.4,29.81,SSW,202,0.0,0.0,57,0.00,CLR,,0.00,WeatherDisplay:10.37,2013-08-02 09:57:00,
2013-08-02 20:02:00,57.4,42.7,29.80,SSW,202,0.0,0.0,58,0.00,CLR,,0.00,WeatherDisplay:10.37,2013-08-02 10:02:00,
2013-08-02 20:07:00,57.4,42.7,29.81,SSW,202,0.0,0.0,58,0.00,CLR,,0.00,WeatherDisplay:10.37,2013-08-02 10:07:00,
2013-08-02 20:12:00,57.0,42.4,29.81,SSW,202,0.0,0.0,58,0.00,CLR,,0.00,WeatherDisplay:10.37,2013-08-02 10:12:00,
2013-08-02 20:17:00,57.0,42.4,29.81,SSW,210,0.0,0.0,58,0.00,CLR,,0.00,WeatherDisplay:10.37,2013-08-02 10:17:00,
2013-08-02 20:22:00,56.9,42.7,29.80,SSW,213,0.0,0.0,59,0.00,CLR,,0.00,WeatherDisplay:10.37,2013-08-02 10:22:00,
2013-08-02 20:27:00,56.8,42.7,29.80,SSW,207,0.0,0.0,59,0.00,CLR,,0.00,WeatherDisplay:10.37,2013-08-02 10:27:00,
2013-08-02 20:32:00,56.5,42.3,29.80,SSW,208,0.0,0.0,59,0.00,CLR,,0.00,WeatherDisplay:10.37,2013-08-02 10:32:00,
2013-08-02 20:37:00,56.4,42.7,29.81,SSW,207,0.0,0.0,60,0.00,CLR,,0.00,WeatherDisplay:10.37,2013-08-02 10:37:00,
2013-08-02 20:42:00,56.3,42.6,29.81,SSW,204,0.0,0.0,60,0.00,CLR,,0.00,WeatherDisplay:10.37,2013-08-02 10:42:00,
2013-08-02 20:47:00,56.1,42.4,29.81,SW,223,0.0,0.0,60,0.00,CLR,,0.00,WeatherDisplay:10.37,2013-08-02 10:47:00,
2013-08-02 20:52:00,56.1,42.4,29.81,WSW,244,0.0,0.0,60,0.00,CLR,,0.00,WeatherDisplay:10.37,2013-08-02 10:52:00,
2013-08-02 20:57:00,56.1,42.4,29.81,WSW,249,0.0,0.0,60,0.00,CLR,,0.00,WeatherDisplay:10.37,2013-08-02 10:57:00,
2013-08-02 21:07:00,56.5,42.8,29.82,North,359,0.0,0.0,60,0.00,CLR,,0.00,WeatherDisplay:10.37,2013-08-02 11:07:00,
2013-08-02 21:12:00,56.2,42.5,29.82,North,359,0.0,0.0,60,0.00,CLR,,0.00,WeatherDisplay:10.37,2013-08-02 11:12:00,
2013-08-02 21:17:00,55.9,42.7,29.82,NW,308,0.0,0.0,61,0.00,CLR,,0.00,WeatherDisplay:10.37,2013-08-02 11:17:00,
2013-08-02 21:22:00,55.9,42.7,29.83,NW,307,0.0,0.0,61,0.00,CLR,,0.00,WeatherDisplay:10.37,2013-08-02 11:22:00,
2013-08-02 21:27:00,55.6,42.4,29.83,WNW,282,0.0,0.0,61,0.00,CLR,,0.00,WeatherDisplay:10.37,2013-08-02 11:27:00,
2013-08-02 21:32:00,55.4,42.2,29.83,SW,216,0.0,0.0,61,0.00,CLR,,0.00,WeatherDisplay:10.37,2013-08-02 11:32:00,
2013-08-02 21:37:00,55.2,42.4,29.83,SSW,202,0.0,0.0,62,0.00,CLR,,0.00,WeatherDisplay:10.37,2013-08-02 11:37:00,
2013-08-02 21:42:00,55.0,42.3,29.83,SSW,202,0.0,0.0,62,0.00,CLR,,0.00,WeatherDisplay:10.37,2013-08-02 11:42:00,
2013-08-02 21:47:00,55.0,42.2,29.83,SW,225,0.0,0.0,62,0.00,CLR,,0.00,WeatherDisplay:10.37,2013-08-02 11:47:00,
2013-08-02 21:52:00,54.7,41.9,29.83,WSW,251,0.0,0.0,62,0.00,CLR,,0.00,WeatherDisplay:10.37,2013-08-02 11:52:00,
2013-08-02 21:57:00,54.3,42.0,29.83,SW,217,0.0,0.0,63,0.00,CLR,,0.00,WeatherDisplay:10.37,2013-08-02 11:57:00,
2013-08-02 22:02:00,54.3,42.0,29.84,SSW,202,0.0,0.0,63,0.00,CLR,,0.00,WeatherDisplay:10.37,2013-08-02 12:02:00,
2013-08-02 22:07:00,54.1,42.2,29.84,SSW,203,0.0,0.0,64,0.00,CLR,,0.00,WeatherDisplay:10.37,2013-08-02 12:07:00,
2013-08-02 22:12:00,54.1,42.2,29.84,SSW,203,0.0,0.0,64,0.00,CLR,,0.00,WeatherDisplay:10.37,2013-08-02 12:12:00,
2013-08-02 22:17:00,54.2,42.3,29.84,WSW,239,0.0,2.0,64,0.00,CLR,,0.00,WeatherDisplay:10.37,2013-08-02 12:17:00,
2013-08-02 22:22:00,54.5,41.7,29.84,West,266,0.0,3.0,62,0.00,CLR,,0.00,WeatherDisplay:10.37,2013-08-02 12:22:00,
2013-08-02 22:27:00,55.0,41.8,29.84,West,276,0.0,0.0,61,0.00,CLR,,0.00,WeatherDisplay:10.37,2013-08-02 12:27:00,
2013-08-02 22:32:00,55.2,42.0,29.84,NW,319,0.0,0.0,61,0.00,CLR,,0.00,WeatherDisplay:10.37,2013-08-02 12:32:00,
2013-08-02 22:37:00,55.5,42.2,29.84,NW,326,0.0,0.0,61,0.00,CLR,,0.00,WeatherDisplay:10.37,2013-08-02 12:37:00,
2013-08-02 22:42:00,55.4,42.2,29.84,NW,321,0.0,0.0,61,0.00,CLR,,0.00,WeatherDisplay:10.37,2013-08-02 12:42:00,
2013-08-02 22:47:00,55.2,42.0,29.84,NW,322,0.0,0.0,61,0.00,CLR,,0.00,WeatherDisplay:10.37,2013-08-02 12:47:00,
2013-08-02 22:52:00,55.2,42.0,29.83,WNW,303,1.0,2.0,61,0.00,CLR,,0.00,WeatherDisplay:10.37,2013-08-02 12:52:00,
2013-08-02 22:57:00,55.2,41.6,29.84,NW,308,0.0,2.0,60,0.00,CLR,,0.00,WeatherDisplay:10.37,2013-08-02 12:57:00,
2013-08-02 23:02:00,55.2,41.6,29.84,NW,319,1.0,3.0,60,0.00,CLR,,0.00,WeatherDisplay:10.37,2013-08-02 13:02:00,
2013-08-02 23:07:00,55.2,41.6,29.84,WNW,290,1.0,3.0,60,0.00,CLR,,0.00,WeatherDisplay:10.37,2013-08-02 13:07:00,
2013-08-02 23:12:00,55.5,41.8,29.84,NW,304,0.0,2.0,60,0.00,CLR,,0.00,WeatherDisplay:10.37,2013-08-02 13:12:00,
2013-08-02 23:17:00,55.5,42.3,29.84,North,3,0.0,1.0,61,0.00,CLR,,0.00,WeatherDisplay:10.37,2013-08-02 13:17:00,
2013-08-02 23:22:00,55.2,42.0,29.84,NNE,25,0.0,0.0,61,0.00,CLR,,0.00,WeatherDisplay:10.37,2013-08-02 13:22:00,
2013-08-02 23:27:00,55.0,41.8,29.84,NNE,21,0.0,0.0,61,0.00,CLR,,0.00,WeatherDisplay:10.37,2013-08-02 13:27:00,
2013-08-02 23:32:00,54.5,41.3,29.84,NNE,29,0.0,0.0,61,0.00,CLR,,0.00,WeatherDisplay:10.37,2013-08-02 13:32:00,
2013-08-02 23:37:00,54.1,41.4,29.84,NE,38,0.0,0.0,62,0.00,CLR,,0.00,WeatherDisplay:10.37,2013-08-02 13:37:00,
2013-08-02 23:42:00,53.8,41.1,29.84,NNE,12,0.0,0.0,62,0.00,CLR,,0.00,WeatherDisplay:10.37,2013-08-02 13:42:00,
2013-08-02 23:47:00,53.8,41.1,29.84,NW,316,0.0,0.0,62,0.00,CLR,,0.00,WeatherDisplay:10.37,2013-08-02 13:47:00,
2013-08-02 23:52:00,53.8,41.1,29.84,WNW,298,0.0,0.0,62,0.00,CLR,,0.00,WeatherDisplay:10.37,2013-08-02 13:52:00,
2013-08-02 23:57:00,54.1,41.4,29.84,WNW,285,1.0,5.0,62,0.00,CLR,,0.00,WeatherDisplay:10.37,2013-08-02 13:57:00,